Regional Weather Roundup
Issued by NWS

Current Version | Previous Version | Graphics & Text | Print | Product List | Glossary On
Versions: 1 2 3 4 5 6 7 8 9 10 11 12 13 14 15 16 17 18 19 20 21 22 23 24 25 26 27 28 29 30 31 32 33 34 35 36 37 38 39 40 41 42 43 44 45 46 47 48 49 50
000
ASHW40 PHFO 301043
RWRHI

WEATHER ROUNDUP FOR HAWAII
NATIONAL WEATHER SERVICE HONOLULU HI
1200 AM HST TUE SEP 30 2014

THIS IS AN AUTOMATED REPORT THAT HAS NOT BEEN QUALITY CONTROLLED.

NOTE..."FAIR" INDICATES FEW OR NO CLOUDS BELOW 12,000 FEET WITH NO
SIGNIFICANT WEATHER AND/OR OBSTRUCTIONS TO VISIBILITY.

* - THESE SITES REPORT LIMITED FIELDS

HIZ001>004-301100-
KAUAI-NIIHAU-

CITY           SKY/WX    TMP DP  RH WIND       PRES   REMARKS
LIHUE APT      PTCLDY    77  72  83 CALM      29.97F
PORT ALLEN*      N/A     77 N/A N/A N2          N/A
POIPU*           N/A     73 N/A N/A N2          N/A
PRINCEVILLE*   NOT AVBL
KOKOLE POINT*    N/A     79 N/A N/A MISG        N/A
MOLOAA DAIRY*  NOT AVBL
WAIMEA HTS*      N/A     75  68  78 NE2         N/A
PUU OPAE*        N/A     70  64  83 CALM        N/A
PUU LUA*       NOT AVBL
MAKAHA RIDGE*  NOT AVBL
$$

HIZ005>011-301100-
OAHU-

CITY           SKY/WX    TMP DP  RH WIND       PRES   REMARKS
HONOLULU       PTCLDY    78  70  76 NW7       29.95F
KALAELOA       CLEAR     74  69  85 CALM      29.96F
KANEOHE MCB    LGT RAIN  83  75  77 CALM      29.96S HX  90
WHEELER FIELD  PTCLDY    73  70  88 NW3       30.03
BELLOWS*         N/A    N/A N/A N/A E9          N/A
KAHUKU*          N/A    N/A N/A N/A E1          N/A
WHEELER*       NOT AVBL
WAIANAE HARBOR NOT AVBL
DILLINGHAM*      N/A     70  68  94 CALM        N/A
KAHUKU TRN*      N/A     73  72  94 E3          N/A
KAWAILOA*      NOT AVBL
KII*             N/A     75  72  88 SE3         N/A
MAKUA RANGE*     N/A     75  70  83 E6          N/A
OAHU FOREST NW   N/A     70  70 100 NE6G14      N/A
SCHOFIELD BRK*   N/A     70  66  88 MISG        N/A
SCHOFIELD S*   NOT AVBL
WAIANAE VLY*     N/A     72  66  83 N5          N/A
KUAOKALA*        N/A     75  70  83 CALM        N/A
HONOULIUULI*   NOT AVBL
MOKUOLOE IS*     N/A    N/A N/A N/A MISG        N/A
PALEHUA*         N/A     81  70  69 CALM        N/A
WAIAWA PHB*    NOT AVBL
$$

HIZ012>013-301100-
MOLOKAI-

CITY           SKY/WX    TMP DP  RH WIND       PRES   REMARKS
MOLOKAI AIRPT  MOCLDY    74  72  93 CALM      29.98R
KALAUPAPA      NOT AVBL
MAKAPULAPAI*     N/A     77  72  83 S3          N/A
MOLOKAI 1*       N/A     70  68  94 E3G15       N/A
PUU ALII*        N/A     62  62  98 E1          N/A
$$

HIZ016-301100-
KAHOOLAWE-

CITY           SKY/WX    TMP DP  RH WIND       PRES   REMARKS
KAHOOLAWE*       N/A     73 N/A N/A E7          N/A
HAKIOAWA*      NOT AVBL
HONOKANAIA*      N/A     80  72  75 NE6       29.97S
KANELOA*         N/A     75  68  78 NE5         N/A
KEALIALALO*    NOT AVBL
LUA MAKIKA*    NOT AVBL
$$

HIZ014>015-301100-
LANAI-

CITY           SKY/WX    TMP DP  RH WIND       PRES   REMARKS
LANAI CITY     FAIR      72  72 100 E8        30.03S
LANAI 1*         N/A     73  73 100 SE7G13      N/A
$$

HIZ017>028-301100-
MAUI-

CITY           SKY/WX    TMP DP  RH WIND       PRES   REMARKS
KAHULUI        CLOUDY    77  71  82 S5        29.96R
KAPALUA-W MAUI NOT AVBL
HANA AIRPORT   MOCLDY    77  72  83 E3        29.98S
HANA*            N/A     81 N/A N/A E7G14       N/A
HALEAKALA SUMM   N/A     46  43  87 E13         N/A
MAALAEA BAY*   NOT AVBL
HALEAKALA*     NOT AVBL
KAUPO GAP*       N/A     64  61  88 SW3         N/A
KULA 1*          N/A     54  49  82 E2          N/A
$$

HIZ023>026-301100-
BIG ISLAND OF HAWAII COAST AND LOWER SLOPES-

CITY           SKY/WX    TMP DP  RH WIND       PRES   REMARKS
KAILUA KONA    PTCLDY    81  70  69 NE9       29.93F
HILO           CLOUDY    76  71  85 CALM      29.96F
HONOKAA*       NOT AVBL
KAWAIHAE MWT*    N/A     81 N/A N/A NE7         N/A
KAWAIHAE*        N/A     81 N/A N/A NE3         N/A
SOUTH POINT*     N/A     70 N/A N/A N10         N/A
UPOLU AIRPORT*   N/A    N/A N/A N/A SE8         N/A
KAMUELA*       SUNNY     61  57  88 CALM      30.08S
HAKALAU*         N/A     50  48  92 W3          N/A
KALOKO-HONOKO*   N/A     77  68  73 NE3G12    29.92S
PALI 2*          N/A     70  -9   4 N3          N/A
KEALAKOMO*       N/A     79  72  78 VRB5        N/A
KAUPULEHU*       N/A     73  63  68 E5          N/A
KAPAPALA*        N/A     69  67  93 CALM        N/A
LOWER KAHUKU*  NOT AVBL
PUHE CS*       NOT AVBL
PUHO CS*         N/A     78  68  70 E1          N/A
PTA KEAMUKU*     N/A     63  57  82 SE2         N/A
WAIKOLOA*        N/A    N/A N/A N/A E3          N/A
$$

HIZ027>028-301100-
BIG ISLAND OF HAWAII INTERIOR AND SUMMMITS-

CITY           SKY/WX    TMP DP  RH WIND       PRES   REMARKS
BRADSHAW FIELD NOT AVBL
MK VISITOR CEN NOT AVBL
MAUNA KEA*       N/A     34  12  40 SE13        N/A  WCI  25
MAUNA LOA*       N/A    N/A N/A N/A MISG        N/A
MAUNA LOA 1*   NOT AVBL
PTA KIPUKA*      N/A     61  59  94 SE3         N/A
PTA RANGE 17*    N/A     57  55  94 E3          N/A
PTA WEST*        N/A    N/A N/A N/A E3          N/A
NENE CABIN*    NOT AVBL
AHUMOA*          N/A     53  49  86 E6          N/A
PTA PORTABLE*  NOT AVBL
PUU MALI*      NOT AVBL
$$

HIC003-301100-
NORTHWEST ISLANDS-

CITY           SKY/WX    TMP DP  RH WIND       PRES   REMARKS
MIDWAY ISLAND  CLEAR     77  64  65 CALM      30.01F
MIDWAY NOS*    NOT AVBL
FRENCH FRIGATE NOT AVBL
$$

PHZ110>124-180-301100-
BUOY REPORTS

STATION/POSITION TIME  TEMP    WIND        PRES    WAVE   SWELL
                       AIR SEA DIR/SP/G            HT/PER HT/DIR
                 (UTC) (F)     (DEG/KT/KT) (MB)    (FT/S) (FT/D)
BUOY 51001       NOT AVBL
BUOY 51101       NOT AVBL
BUOY 51100       1000   78 81  150/ 10/ 12 1015.4
BUOY 51003       1000   82 83  100/ 12/ 14 1013.9F   6/10   5
BUOY 51004       0916   80 81  100/ 12/ 14 1013.4F   6/19   7/150
BARBERS PT BUOY  NOT AVBL
WAIMEA BAY BUOY  1000      83                N/A     4/10   2/350
KAILUA BAY BUOY  1000      82                N/A     4/ 8   2/ 40
LANAI BUOY       NOT AVBL
BARBERS PT 2     1000      83                N/A     4/11   2/310
PAUWELA MAUI     1000      81                N/A     5/10   2/ 30
HILO             1000      82                N/A     5/ 8   2/ 30
KANEOHE BAY BUOY NOT AVBL
HANALEI KAUAI    NOT AVBL
KAHULUI HARBOR   1000   78 81   CALM  /  2 1014.3R
HONOLULU HARBOR  1000   79     320/  4/  5 1014.7R
KILO NALU        NOT AVBL
HILO HARBOR      1000   76     180/  1/  4 1014.2S
MOKUOLOE         1000   78 84  150/  2/  4 1014.7R
NAWILIWILI       1000      83                N/A
WHOTS BUOY       NOT AVBL
BUOY 51028       NOT AVBL
$$

......................KEY........................................
  SKY/WX - SKY CONDITIONS/PRESENT WEATHER
  TMP    - TEMPERATURE IN FAHRENHEIT
  DWPT   - DEWPOINT IN FAHRENHEIT
  RH     - RELATIVE HUMIDITY IN PERCENT
  WIND   - DIRECTION AND SPEED /MPH FOR ISLANDS...KTS FOR BUOYS/
  PRES   - MEAN SEA LEVEL PRESSURE IN INCHES OF HG
  VSB    - VISIBILITY IN MILES
  HX     - HEAT INDEX
  WCI    - WIND CHILL INDEX
  VRB    - VARIABLE WIND DIRECTION
  N/A    - NOT AVAILABLE


USA.gov is the U.S. government's official web portal to all federal, state and local government web resources and services.